User: anonymous   Login
Location: Unspecified
(0.0000°N, 0.0000°E)
Time: 13:08:27
(UTC+00:00)
Language:

Tiangong 2 - Orbit

View from above orbital plane
View from above orbital plane
View from above satellite
View from above satellite

Ground track
Ground track

The orbit data is extracted from the following two-line orbital elements,

1 41765U 16057A   19199.14625007  .00002367  00000-0  30828-4 0  9999
2 41765  42.7824 141.9997 0006377 121.2583   8.2365 15.61915198161881
Epoch (UTC): 18 July 2019 03:30:36
Eccentricity: 0.0006377
inclination: 42.7824°
perigee height: 378 km
apogee height: 386 km
right ascension of ascending node: 141.9997°
argument of perigee: 121.2583°
revolutions per day: 15.61915198
mean anomaly at epoch: 8.2365°
orbit number at epoch: 16188

The dashed part of the orbit path shows where the satellite is in the earth's shadow,  

DLR